Warning: Javascript must be enabled to use all the features on this page!


Page Loading - Please Wait...

* We've detected you're using a mobile device. Find our Next Generation Station Page here.
Click to hideNews Bulletins

Peak Streamflow for Nevada

Click to hide state-specific text


USGS 10308800 BRYANT CK NR GARDNERVILLE, NV

Douglas County, Nevada
Hydrologic Unit Code 16050201
Latitude  38°47'38", Longitude 119°40'18" NAD27
Drainage area 31.5  square miles
Gage datum 5,445.91 feet above NGVD29
Output formats
Table
Graph
Tab-separated file
peakfq (watstore) format
Reselect output format
Water
Year
Date Gage
Height
(feet)
Stream-
flow
(cfs)
1962 1962-04-09 2.04 58.0
1963 1963-01-31 6.40 975
1964 1963-11-15 1.016 24.0
1965 1965-04-21 1.88 99.0
1966 1966-03-12 1.00 25.0
1967 1967-03-16 3.27 278
1968 1968-02-23 1.06 28.0
1969 1969-01-26 2.56 176
1970 1970-04 1.92Bd 106Bd
1971 1971 1.90Bm 103Bm
1972 1972-05-05 1.86 100
1973 1973 1.49Bm 70.0Bm
1978 1978-03-25 1.35 19.9
1979 1979-01-11 1.88 78.0
1980 1980-01-13 3.24 442
1995 1995-03-10 8.246 650R
1996 1996-02-05 6.40 153R
1997 1997-01-02 8.70 8162,R
1998 1998-03-24 7.10 2922,R
1999 1999-02-07 6.11 1032
2000 2000-02-14 5.57 40.0
2001 2001-04-22 5.31 22.0
2002 2002-04-02 5.26 15.0
2003 2002-11-08 5.37 25.0
2004 2004-03-18 6.27 70.0
2005 2005-05-16 6.52 156
2006 2005-12-31 10.62 971
2007 2007-03-14 5.68 7.10
2008 2008-03-13 6.30 9.80
2009 2009-03-02 6.31 9.80
2010 2010-05-03 6.32 28.0
2011 2011-03-16 8.14 277
2012 2012-01-21 6.16 14.0
2013 2012-12-02 6.57 30.0
2014 2014-03-07 5.862 17.0
2015 2015-02-09 5.96 26.0
2016 2016-01-30 6.992 123
2017 2017-01-08 9.71 576
?
  Peak Gage-Height Qualification Codes.
?
  Peak Streamflow Qualification Codes.